Time,TemperatureF,DewpointF,PressureIn,WindDirection,WindDirectionDegrees,WindSpeedMPH,WindSpeedGustMPH,Humidity,HourlyPrecipIn,Conditions,Clouds,dailyrainin,SoftwareType,DateUTC
2013-07-28 00:12:00,58.0,55.0,-100.00,WSW,252,14.0,-999.0,89,0.00,,,-99.99,,2013-07-28 07:12:00,
2013-07-28 00:22:00,58.0,55.0,-100.00,WSW,252,14.0,-999.0,89,0.00,,,-99.99,,2013-07-28 07:22:00,
2013-07-28 00:32:00,58.0,55.0,-100.00,WSW,252,14.0,-999.0,89,0.00,,,-99.99,,2013-07-28 07:32:00,
2013-07-28 00:42:00,58.0,55.0,-100.00,WSW,252,14.0,-999.0,89,0.00,,,-99.99,,2013-07-28 07:42:00,
2013-07-28 01:02:00,57.0,54.0,-100.00,West,279,14.0,-999.0,90,0.00,,,-99.99,,2013-07-28 08:02:00,
2013-07-28 01:12:00,57.0,54.0,-100.00,West,279,14.0,-999.0,90,0.00,,,-99.99,,2013-07-28 08:12:00,
2013-07-28 01:22:00,57.0,54.0,-100.00,West,279,14.0,-999.0,90,0.00,,,-99.99,,2013-07-28 08:22:00,
2013-07-28 01:33:00,57.0,54.0,-100.00,West,279,14.0,-999.0,90,0.00,,,-99.99,,2013-07-28 08:33:00,
2013-07-28 01:42:00,57.0,54.0,-100.00,West,279,14.0,-999.0,90,0.00,,,-99.99,,2013-07-28 08:42:00,
2013-07-28 02:02:00,56.0,54.0,-100.00,West,274,15.0,-999.0,91,0.00,,,-99.99,,2013-07-28 09:02:00,
2013-07-28 02:12:00,56.0,54.0,-100.00,West,274,15.0,-999.0,91,0.00,,,-99.99,,2013-07-28 09:12:00,
2013-07-28 02:22:00,56.0,54.0,-100.00,West,274,15.0,-999.0,91,0.00,,,-99.99,,2013-07-28 09:22:00,
2013-07-28 02:32:00,56.0,54.0,-100.00,West,274,15.0,-999.0,91,0.00,,,-99.99,,2013-07-28 09:32:00,
2013-07-28 02:43:00,56.0,54.0,-100.00,West,274,15.0,-999.0,91,0.00,,,-99.99,,2013-07-28 09:43:00,
2013-07-28 08:02:00,55.0,53.0,-100.00,West,276,13.0,-999.0,93,0.00,,,-99.99,,2013-07-28 15:02:00,
2013-07-28 08:12:00,55.0,53.0,-100.00,West,276,13.0,-999.0,93,0.00,,,-99.99,,2013-07-28 15:12:00,
2013-07-28 08:22:00,55.0,53.0,-100.00,West,276,13.0,-999.0,93,0.00,,,-99.99,,2013-07-28 15:22:00,
2013-07-28 08:32:00,55.0,53.0,-100.00,West,276,13.0,-999.0,93,0.00,,,-99.99,,2013-07-28 15:32:00,
2013-07-28 08:43:00,55.0,53.0,-100.00,West,276,13.0,-999.0,93,0.00,,,-99.99,,2013-07-28 15:43:00,
2013-07-28 09:12:00,57.0,54.0,-100.00,West,278,15.0,-999.0,89,0.00,,,-99.99,,2013-07-28 16:12:00,
2013-07-28 09:22:00,57.0,54.0,-100.00,West,278,15.0,-999.0,89,0.00,,,-99.99,,2013-07-28 16:22:00,
2013-07-28 09:33:00,57.0,54.0,-100.00,West,278,15.0,-999.0,89,0.00,,,-99.99,,2013-07-28 16:33:00,
2013-07-28 09:43:00,57.0,54.0,-100.00,West,278,15.0,-999.0,89,0.00,,,-99.99,,2013-07-28 16:43:00,
2013-07-28 10:02:00,60.0,55.0,-100.00,West,274,15.0,-999.0,82,0.00,,,-99.99,,2013-07-28 17:02:00,
2013-07-28 10:12:00,60.0,55.0,-100.00,West,274,15.0,-999.0,82,0.00,,,-99.99,,2013-07-28 17:12:00,
2013-07-28 10:22:00,60.0,55.0,-100.00,West,274,15.0,-999.0,82,0.00,,,-99.99,,2013-07-28 17:22:00,
2013-07-28 10:32:00,60.0,55.0,-100.00,West,274,15.0,-999.0,82,0.00,,,-99.99,,2013-07-28 17:32:00,
2013-07-28 10:43:00,60.0,55.0,-100.00,West,274,15.0,-999.0,82,0.00,,,-99.99,,2013-07-28 17:43:00,
2013-07-28 11:02:00,62.0,55.0,-100.00,West,280,17.0,-999.0,78,0.00,,,-99.99,,2013-07-28 18:02:00,
2013-07-28 11:12:00,62.0,55.0,-100.00,West,280,17.0,-999.0,78,0.00,,,-99.99,,2013-07-28 18:12:00,
2013-07-28 11:22:00,62.0,55.0,-100.00,West,280,17.0,-999.0,78,0.00,,,-99.99,,2013-07-28 18:22:00,
2013-07-28 11:32:00,62.0,55.0,-100.00,West,280,17.0,-999.0,78,0.00,,,-99.99,,2013-07-28 18:32:00,
2013-07-28 11:42:00,62.0,55.0,-100.00,West,280,17.0,-999.0,78,0.00,,,-99.99,,2013-07-28 18:42:00,
2013-07-28 12:02:00,65.0,56.0,-100.00,West,259,14.0,-999.0,71,0.00,,,-99.99,,2013-07-28 19:02:00,
2013-07-28 12:12:00,65.0,56.0,-100.00,West,259,14.0,-999.0,71,0.00,,,-99.99,,2013-07-28 19:12:00,
2013-07-28 12:22:00,65.0,56.0,-100.00,West,259,14.0,-999.0,71,0.00,,,-99.99,,2013-07-28 19:22:00,
2013-07-28 12:32:00,65.0,56.0,-100.00,West,259,14.0,-999.0,71,0.00,,,-99.99,,2013-07-28 19:32:00,
2013-07-28 12:43:00,65.0,56.0,-100.00,West,259,14.0,-999.0,71,0.00,,,-99.99,,2013-07-28 19:43:00,
2013-07-28 13:02:00,69.0,56.0,-100.00,West,264,15.0,-999.0,64,0.00,,,-99.99,,2013-07-28 20:02:00,
2013-07-28 13:12:00,69.0,56.0,-100.00,West,264,15.0,-999.0,64,0.00,,,-99.99,,2013-07-28 20:12:00,
2013-07-28 13:22:00,69.0,56.0,-100.00,West,264,15.0,-999.0,64,0.00,,,-99.99,,2013-07-28 20:22:00,
2013-07-28 13:33:00,69.0,56.0,-100.00,West,264,15.0,-999.0,64,0.00,,,-99.99,,2013-07-28 20:33:00,
2013-07-28 13:43:00,69.0,56.0,-100.00,West,264,15.0,-999.0,64,0.00,,,-99.99,,2013-07-28 20:43:00,
2013-07-28 14:02:00,70.0,55.0,-100.00,West,271,16.0,-999.0,59,0.00,,,-99.99,,2013-07-28 21:02:00,
2013-07-28 14:12:00,70.0,55.0,-100.00,West,271,16.0,-999.0,59,0.00,,,-99.99,,2013-07-28 21:12:00,
2013-07-28 14:22:00,70.0,55.0,-100.00,West,271,16.0,-999.0,59,0.00,,,-99.99,,2013-07-28 21:22:00,
2013-07-28 14:33:00,70.0,55.0,-100.00,West,271,16.0,-999.0,59,0.00,,,-99.99,,2013-07-28 21:33:00,
2013-07-28 14:43:00,70.0,55.0,-100.00,West,271,16.0,-999.0,59,0.00,,,-99.99,,2013-07-28 21:43:00,
2013-07-28 15:01:00,72.0,55.0,-100.00,West,261,17.0,-999.0,56,0.00,,,-99.99,,2013-07-28 22:01:00,
2013-07-28 15:12:00,72.0,55.0,-100.00,West,261,17.0,-999.0,56,0.00,,,-99.99,,2013-07-28 22:12:00,
2013-07-28 15:22:00,72.0,55.0,-100.00,West,261,17.0,-999.0,56,0.00,,,-99.99,,2013-07-28 22:22:00,
2013-07-28 15:32:00,72.0,55.0,-100.00,West,261,17.0,-999.0,56,0.00,,,-99.99,,2013-07-28 22:32:00,
2013-07-28 15:43:00,72.0,55.0,-100.00,West,261,17.0,-999.0,56,0.00,,,-99.99,,2013-07-28 22:43:00,
2013-07-28 16:12:00,73.0,55.0,-100.00,WSW,256,16.0,-999.0,54,0.00,,,-99.99,,2013-07-28 23:12:00,
2013-07-28 16:22:00,73.0,55.0,-100.00,WSW,256,16.0,-999.0,54,0.00,,,-99.99,,2013-07-28 23:22:00,
2013-07-28 16:32:00,73.0,55.0,-100.00,WSW,256,16.0,-999.0,54,0.00,,,-99.99,,2013-07-28 23:32:00,
2013-07-28 16:43:00,73.0,55.0,-100.00,WSW,256,16.0,-999.0,54,0.00,,,-99.99,,2013-07-28 23:43:00,
2013-07-28 17:02:00,72.0,55.0,-100.00,West,266,19.0,-999.0,54,0.00,,,-99.99,,2013-07-29 00:02:00,
2013-07-28 17:12:00,72.0,55.0,-100.00,West,266,19.0,-999.0,54,0.00,,,-99.99,,2013-07-29 00:12:00,
2013-07-28 17:22:00,72.0,55.0,-100.00,West,266,19.0,-999.0,54,0.00,,,-99.99,,2013-07-29 00:22:00,
2013-07-28 17:32:00,72.0,55.0,-100.00,West,266,19.0,-999.0,54,0.00,,,-99.99,,2013-07-29 00:32:00,
2013-07-28 17:43:00,72.0,55.0,-100.00,West,266,19.0,-999.0,54,0.00,,,-99.99,,2013-07-29 00:43:00,
2013-07-28 18:02:00,71.0,54.0,-100.00,West,262,20.0,-999.0,55,0.00,,,-99.99,,2013-07-29 01:02:00,
2013-07-28 18:12:00,71.0,54.0,-100.00,West,262,20.0,-999.0,55,0.00,,,-99.99,,2013-07-29 01:12:00,
2013-07-28 18:24:00,71.0,54.0,-100.00,West,262,20.0,-999.0,55,0.00,,,-99.99,,2013-07-29 01:24:00,
2013-07-28 18:34:00,71.0,54.0,-100.00,West,262,20.0,-999.0,55,0.00,,,-99.99,,2013-07-29 01:34:00,
2013-07-28 18:42:00,71.0,54.0,-100.00,West,262,20.0,-999.0,55,0.00,,,-99.99,,2013-07-29 01:42:00,
2013-07-28 19:24:00,66.0,53.0,-100.00,West,267,8.0,-999.0,62,0.00,,,-99.99,,2013-07-29 02:24:00,
2013-07-28 19:44:00,66.0,53.0,-100.00,West,267,8.0,-999.0,62,0.00,,,-99.99,,2013-07-29 02:44:00,
2013-07-28 20:03:00,62.0,52.0,-100.00,WSW,257,13.0,-999.0,68,0.00,,,-99.99,,2013-07-29 03:03:00,
2013-07-28 20:22:00,62.0,52.0,-100.00,WSW,257,13.0,-999.0,68,0.00,,,-99.99,,2013-07-29 03:22:00,
2013-07-28 20:34:00,62.0,52.0,-100.00,WSW,257,13.0,-999.0,68,0.00,,,-99.99,,2013-07-29 03:34:00,
2013-07-28 21:02:00,59.0,52.0,-100.00,West,263,15.0,-999.0,77,0.00,,,-99.99,,2013-07-29 04:02:00,
2013-07-28 21:12:00,59.0,52.0,-100.00,West,263,15.0,-999.0,77,0.00,,,-99.99,,2013-07-29 04:12:00,
2013-07-28 21:22:00,59.0,52.0,-100.00,West,263,15.0,-999.0,77,0.00,,,-99.99,,2013-07-29 04:22:00,
2013-07-28 21:32:00,59.0,52.0,-100.00,West,263,15.0,-999.0,77,0.00,,,-99.99,,2013-07-29 04:32:00,
2013-07-28 21:43:00,59.0,52.0,-100.00,West,263,15.0,-999.0,77,0.00,,,-99.99,,2013-07-29 04:43:00,